Hourly Data Report for March 20, 2021

KUGAARUK CLIMATE
NUNAVUT
Current Station Operator: ECCC - MSC

68°32'15.060" N
89°47'47.020" W
15.80 m
2303094
71407
NBB

Download Data

Hourly Data (March 2021)
Hourly Data Report for March 20, 2021
TIME
LST
Temp Definition
°C
Dew Point Definition
°C
Rel Hum Definition
%
Precip. Amount Definition
mm

Wind Dir Definition
10's deg

Wind Spd Definition
km/h
Visibility Definition
km
Stn Press Definition
kPa
Hmdx Definition


Wind Chill Definition


Weather Definition


00:00 -28.6 -32.0 72 0.0 23 22   101.45   -42 LegendNANA
01:00 -28.9 -32.6 71 0.0 22 21   101.47   -42 LegendNANA
02:00 -30.1 -33.4 73 0.0 26 9   101.46   -39 LegendNANA
03:00 -31.5 -34.5 75 0.0 26 12   101.44   -42 LegendNANA
04:00 -31.8 -34.8 75 0.0 25 13   101.40   -43 LegendNANA
05:00 -32.2 -35.0 77 0.0 26 13   101.40   -43 LegendNANA
06:00 -29.9 -32.9 75 0.0 25 19   101.37   -43 LegendNANA
07:00 -29.4 -33.1 71 0.0 27 15   101.34   -41 LegendNANA
08:00 -28.5 -32.4 69 0.0 27 14   101.29   -39 LegendNANA
09:00 -26.5 -30.9 66 0.0 23 26   101.24   -40 LegendNANA
10:00 -25.5 -30.2 65 0.0 22 19   101.25   -37 LegendNANA
11:00 -24.6 -29.4 65 0.0 24 18   101.23   -36 LegendNANA
12:00 -24.0 -28.9 64 0.0 24 15   101.23   -34 LegendNANA
13:00 -23.3 -28.2 64 0.0 24 22   101.17   -35 LegendNANA
14:00 -22.4 -27.2 65 0.0 24 32   101.09   -36 LegendNANA
15:00 -22.2 -27.1 65 0.0 24 27   101.06   -35 LegendNANA
16:00 -22.6 -27.2 66 0.0 25 22   101.02   -34 LegendNANA
17:00 -24.8 -28.8 69 0.0 25 11   101.04   -33 LegendNANA
18:00 -26.4 -29.6 75 0.0 26 6   101.02   -32 LegendNANA
19:00 -25.9 -29.2 73 0.0 28 11   101.01   -35 LegendNANA
20:00 -26.6 -29.5 76 0.0 29 4   100.99   -31 LegendNANA
21:00 -26.9 -29.9 76 0.0 27 9   100.95   -35 LegendNANA
22:00 -26.4 -29.5 76 0.0 27 16   100.94   -37 LegendNANA
23:00 -27.5 -30.6 75 0.0 25 13   100.91   -38 LegendNANA

Notes on Data Quality.

Legend

  • E = Estimated
  • M = Missing
  • NA = Not Available*
  • [empty] = Indicates an unobserved value
Date modified: